KB9ZI Weather Reports


time (UTC)temp
C
wind
direction
speed
KPH
gust
KPH
rain 1hr
cm
rain 24hr
cm
rain mn
cm
humidity
%
barometer
mb
20260904081617 23 158 0.0 0.0 0.00 1.40 0.00 95 1009.1
20260904081525 23 158 0.0 0.0 0.00 1.40 0.00 95 1009.1
20260904081318 23 155 0.0 0.0 0.00 1.40 0.00 95 1009.2
20260904081118 23 157 0.0 0.0 0.00 1.40 0.00 95 1009.2
20260904081036 23 157 0.0 0.0 0.00 1.40 0.00 95 1009.1
20260904080722 23 157 0.0 0.0 0.00 1.40 0.00 95 1009.1
20260904080618 23 157 0.0 0.0 0.00 1.40 0.00 95 1009.2
20260904080517 23 157 0.0 0.0 0.00 1.40 0.00 95 1009.1
20260904080318 23 158 0.0 0.0 0.00 1.40 0.00 95 1009.1
20260904080119 23 157 0.0 0.0 0.00 1.40 0.00 95 1009.1
20260904080025 23 157 0.0 0.0 0.00 1.40 0.00 95 1009.1
20260904075716 23 157 0.0 0.0 0.00 1.40 0.00 95 1009.1
20260904075627 23 157 0.0 0.0 0.00 1.40 0.00 95 1009.1
20260904075614 23 157 0.0 0.0 0.00 1.40 0.00 95 1009.1
20260904075318 23 157 0.0 0.0 0.00 1.40 0.00 95 1009.2
20260904075122 23 158 0.0 0.0 0.00 1.40 0.00 95 1009.2
20260904074917 23 159 0.0 0.0 0.00 1.40 0.00 94 1009.1
20260904074717 23 158 0.0 0.0 0.00 1.40 0.00 94 1009.2
20260904074619 23 158 0.0 0.0 0.00 1.40 0.00 94 1009.2
20260904074602 23 158 0.0 0.0 0.00 1.40 0.00 94 1009.2
20260904074315 23 157 0.0 0.0 0.00 1.40 0.00 94 1009.1
20260904074220 23 157 0.0 0.0 0.00 1.40 0.00 94 1009.1
20260904074101 23 158 0.0 0.0 0.00 1.40 0.00 94 1009.1
20260904073919 23 157 0.0 0.0 0.00 1.40 0.00 94 1009.1
20260904073719 23 157 0.0 0.0 0.00 1.40 0.00 94 1009.1
20260904073601 23 157 0.0 0.0 0.00 1.40 0.00 94 1009.1
20260904073521 23 158 0.0 0.0 0.00 1.40 0.00 94 1009.1
20260904073320 23 157 0.0 0.0 0.00 1.40 0.00 94 1009.2
20260904073223 23 155 0.0 0.0 0.00 1.40 0.00 94 1009.1
20260904073101 23 158 0.0 0.0 0.00 1.40 0.00 94 1009.2
20260904072918 23 158 0.0 0.0 0.00 1.40 0.00 94 1009.1
20260904072903 23 158 0.0 0.0 0.00 1.40 0.00 94 1009.1
20260904072858 23 157 0.0 0.0 0.00 1.40 0.00 94 1009.1
20260904072832 23 157 0.0 0.0 0.00 1.40 0.00 94 1009.2
20260904072323 23 157 0.0 0.0 0.00 1.40 0.00 94 1009.1
20260904072218 23 157 0.0 0.0 0.00 1.40 0.00 94 1009.1
20260904072101 23 158 0.0 0.0 0.00 1.40 0.00 94 1009.1
20260904071917 24 158 0.0 0.0 0.00 1.40 0.00 94 1009.1
20260904071859 24 158 0.0 0.0 0.00 1.40 0.00 94 1009.1
20260904071834 24 157 0.0 0.0 0.00 1.40 0.00 94 1009.1
20260904071522 24 158 0.0 0.0 0.00 1.40 0.00 94 1009.1
20260904071318 24 157 0.0 0.0 0.00 1.40 0.00 94 1009.2
20260904071224 24 158 0.0 0.0 0.00 1.40 0.00 93 1009.1
20260904071100 24 157 0.0 0.0 0.00 1.40 0.00 93 1009.1
20260904070934 24 158 0.0 0.0 0.00 1.40 0.00 93 1009.2
20260904070917 24 158 0.0 0.0 0.00 1.40 0.00 93 1009.1
20260904070853 24 158 0.0 0.0 0.00 1.40 0.00 93 1009.1
20260904070533 24 158 0.0 0.0 0.00 1.40 0.00 93 1009.1
20260904070318 24 158 0.0 0.0 0.00 1.40 0.00 93 1009.2
20260904070118 24 158 0.0 0.0 0.00 1.40 0.00 93 1009.1
20260904070031 24 158 0.0 0.0 0.00 1.40 0.00 93 1009.1
20260904065916 24 157 0.0 0.0 0.00 1.40 0.00 93 1009.2
20260904065815 24 157 0.0 0.0 0.00 1.40 0.00 93 1009.2
20260904065523 24 157 0.0 0.0 0.00 1.40 0.00 93 1009.2
20260904065419 24 158 0.0 0.0 0.00 1.40 0.00 93 1009.2
20260904065116 24 157 0.0 0.0 0.00 1.40 0.00 93 1009.2
20260904065026 24 155 0.0 0.0 0.00 1.40 0.00 93 1009.1
20260904064918 24 158 0.0 0.0 0.00 1.40 0.00 93 1009.1
20260904064819 24 158 0.0 0.0 0.00 1.40 0.00 93 1009.1
20260904064522 24 157 0.0 0.0 0.00 1.40 0.00 93 1009.2
20260904064419 24 157 0.0 0.0 0.00 1.40 0.00 93 1009.1
20260904064116 25 155 0.0 0.0 0.00 1.40 0.00 93 1009.2
20260904064025 25 158 0.0 0.0 0.00 1.40 0.00 93 1009.2
20260904063919 24 157 0.0 0.0 0.00 1.40 0.00 93 1009.2
20260904063717 25 157 0.0 0.0 0.00 1.40 0.00 93 1009.2
20260904063525 25 158 0.0 0.0 0.00 1.40 0.00 93 1009.3
20260904063521 25 157 0.0 0.0 0.00 1.40 0.00 93 1009.3
20260904063421 25 158 0.0 0.0 0.00 1.40 0.00 93 1009.3
20260904063117 25 158 0.0 0.0 0.00 1.40 0.00 93 1009.1
20260904063035 25 157 0.0 0.0 0.00 1.40 0.00 93 1009.2
20260904063024 25 157 0.0 0.0 0.00 1.40 0.00 93 1009.1
20260904062718 25 157 0.0 0.0 0.00 1.40 0.00 93 1009.2
20260904062517 25 158 0.0 0.0 0.00 1.40 0.00 93 1009.2
20260904062317 25 157 0.0 0.0 0.00 1.40 0.00 93 1009.3
20260904062119 25 158 0.0 0.0 0.00 1.40 0.00 93 1009.3
20260904062034 25 157 0.0 0.0 0.00 1.40 0.00 93 1009.2
20260904062023 25 158 0.0 0.0 0.00 1.40 0.00 93 1009.2
20260904061727 25 158 0.0 0.0 0.00 1.40 0.00 92 1009.3
20260904061634 25 158 0.0 0.0 0.00 1.40 0.00 92 1009.3
20260904061533 25 158 0.0 0.0 0.00 1.40 0.00 92 1009.3
20260904061321 25 158 0.0 0.0 0.00 1.40 0.00 92 1009.3
20260904061118 25 158 0.0 0.0 0.00 1.40 0.00 92 1009.2
20260904061025 25 158 0.0 0.0 0.00 1.40 0.00 92 1009.3
20260904060921 25 158 0.0 0.0 0.00 1.40 0.00 92 1009.3
20260904060727 25 158 0.0 0.0 0.00 1.40 0.00 92 1009.2
20260904060532 25 155 0.0 0.0 0.00 1.40 0.00 92 1009.3
20260904060319 25 157 0.0 0.0 0.00 1.40 0.00 92 1009.3
20260904060119 25 157 0.0 0.0 0.00 1.40 0.00 92 1009.2
20260904060020 25 155 0.0 0.0 0.00 1.40 0.00 92 1009.2
20260904055917 25 158 0.0 0.0 0.00 1.40 0.00 92 1009.3
20260904055818 25 157 0.0 0.0 0.00 1.40 0.00 92 1009.2
20260904055633 25 157 0.0 0.0 0.00 1.40 0.00 92 1009.3
20260904055521 25 157 0.0 0.0 0.00 1.40 0.00 92 1009.3
20260904055319 25 158 0.0 0.0 0.00 1.40 0.00 92 1009.3
20260904055117 25 155 0.0 0.0 0.00 1.40 0.00 92 1009.2
20260904055016 25 158 0.0 0.0 0.00 1.40 0.00 92 1009.3
20260904054916 25 157 0.0 0.0 0.00 1.40 0.00 92 1009.3
20260904054716 25 157 0.0 0.0 0.00 1.40 0.00 92 1009.3
20260904054522 25 158 0.0 0.0 0.00 1.40 0.00 92 1009.3
20260904054419 25 157 0.0 0.0 0.00 1.40 0.00 92 1009.2
20260904054223 25 158 0.0 0.0 0.00 1.40 0.00 92 1009.2
20260904054019 25 159 0.0 0.0 0.00 1.40 0.00 92 1009.3
20260904053918 25 157 0.0 0.0 0.00 1.40 0.00 92 1009.2
20260904053719 25 157 0.0 0.0 0.00 1.40 0.00 92 1009.2
20260904053520 25 157 0.0 0.0 0.00 1.40 0.00 92 1009.2
20260904053320 25 157 0.0 0.0 0.00 1.40 0.00 92 1009.2
20260904053120 25 158 0.0 0.0 0.00 1.40 0.00 92 1009.3
20260904053028 25 157 0.0 0.0 0.00 1.40 0.00 92 1009.2
20260904053018 25 157 0.0 0.0 0.00 1.40 0.00 92 1009.3
20260904052718 25 158 0.0 0.0 0.00 1.40 0.00 92 1009.2
20260904052626 25 157 0.0 0.0 0.00 1.40 0.00 91 1009.2
20260904052523 25 157 0.0 0.0 0.00 1.40 0.00 91 1009.2
20260904052318 25 155 0.0 0.0 0.00 1.40 0.00 91 1009.2
20260904052126 25 157 0.0 0.0 0.00 1.40 0.00 91 1009.2
20260904052033 25 158 0.0 0.0 0.00 1.40 0.00 91 1009.2
20260904052021 25 157 0.0 0.0 0.00 1.40 0.00 91 1009.1
20260904051718 25 158 0.0 0.0 0.00 1.40 0.00 91 1009.2
20260904051518 25 157 0.0 0.0 0.00 1.40 0.00 91 1009.2
20260904051320 25 158 0.0 0.0 0.00 1.40 0.00 91 1009.2
20260904051217 25 157 0.0 0.0 0.00 1.40 0.00 91 1009.2
20260904051031 25 157 0.0 0.0 0.00 1.40 0.00 91 1009.2
20260904050917 25 157 0.0 0.0 0.00 1.40 0.00 91 1009.2
20260904050719 25 159 0.0 0.0 0.00 1.40 0.00 91 1009.1
20260904050626 25 157 0.0 0.0 0.00 1.40 0.00 91 1009.2
20260904050521 25 157 0.0 0.0 0.00 1.40 0.00 91 1009.2
20260904050316 25 157 0.0 0.0 0.00 1.40 0.00 91 1009.2
20260904050120 25 158 0.0 0.0 0.00 1.40 0.00 91 1009.1
20260904050018 25 158 0.0 0.0 0.00 1.40 0.00 91 1009.1
20260904045918 25 155 0.0 0.0 0.00 1.40 1.40 91 1009.2
20260904045819 25 157 0.0 0.0 0.00 1.40 1.40 91 1009.2
20260904045505 25 157 0.0 0.0 0.00 1.40 1.40 91 1009.1
20260904045316 25 157 0.0 0.0 0.00 1.40 1.40 91 1009.2
20260904045219 25 157 0.0 0.0 0.00 1.40 1.40 91 1009.1
20260904045006 25 155 0.0 0.0 0.00 1.40 1.40 91 1009.1
20260904044915 25 157 0.0 0.0 0.00 1.40 1.40 91 1009.1
20260904044804 25 157 0.0 0.0 0.00 1.40 1.40 91 1009.2
20260904044754 25 157 0.0 0.0 0.00 1.40 1.40 91 1009.2
20260904044319 25 155 0.0 0.0 0.00 1.40 1.40 90 1009.1
20260904044306 25 155 0.0 0.0 0.00 1.40 1.40 90 1009.2
20260904044302 25 157 0.0 0.0 0.00 1.40 1.40 90 1009.2
20260904044243 25 157 0.0 0.0 0.00 1.40 1.40 90 1009.1
20260904043820 25 158 0.0 0.0 0.00 1.40 1.40 90 1009.1
20260904043504 25 158 0.0 0.0 0.00 1.40 1.40 90 1009.2
20260904043423 25 157 0.0 0.0 0.00 1.40 1.40 90 1009.1
20260904043309 25 157 0.0 0.0 0.00 1.40 1.40 90 1009.2
20260904043252 25 157 0.0 0.0 0.00 1.40 1.40 90 1009.1
20260904042917 25 157 0.0 0.0 0.00 1.40 1.40 90 1009.2
20260904042721 25 158 0.0 0.0 0.00 1.40 1.40 90 1009.1
20260904042524 25 157 0.0 0.0 0.00 1.40 1.40 90 1009.1
20260904042504 25 155 0.0 0.0 0.00 1.40 1.40 90 1009.1
20260904042421 25 155 0.0 0.0 0.00 1.40 1.40 89 1009.2
20260904042251 25 157 0.0 0.0 0.00 1.40 1.40 89 1009.1
20260904042247 25 157 0.0 0.0 0.00 1.40 1.40 89 1009.0
20260904042236 25 157 0.0 0.0 0.00 1.40 1.40 89 1009.0
20260904041705 25 155 0.0 0.0 0.00 1.40 1.40 89 1009.1
20260904041510 -17 0.0 0.0 0.00 0.00 0.00 1009.1
20260904041232 -17 0.0 0.0 0.00 1.40 1.40
20260904041008 -17 0.0 0.0 0.00 1.40 1.40
20260904040834 -17 0.0 0.0 0.00 1.40 1.40
20260904040702 -17 0.0 0.0 0.00 1.40 1.40
20260904040505 -17 0.0 0.0 0.00 1.40 1.40
20260904040405 -17 0.0 0.0 0.00 1.40 1.40
20260904040204 -17 0.0 0.0 0.00 1.40 1.40
20260904040008 -17 0.0 0.0 0.00 1.40 1.40 1009.1
20260904035932 -17 0.0 0.0 0.00 1.40 1.40 1009.1
20260904035831 -17 0.0 0.0 0.00 1.40 1.40 1009.1
20260904035507 26 155 0.0 0.0 0.00 1.40 1.40 88 1009.1
20260904035331 26 155 0.0 0.0 0.00 1.40 1.40 88 1009.1
20260904035201 26 155 0.0 0.0 0.00 1.40 1.40 88 1009.1
20260904035004 26 155 0.0 0.0 0.00 1.40 1.40 88 1009.1
20260904034902 26 155 0.0 0.0 0.00 1.40 1.40 88 1009.1
20260904034702 26 155 0.0 0.0 0.00 1.40 1.40 88 1009.1
20260904034504 26 157 0.0 0.0 0.00 1.40 1.40 88 1009.1
20260904034354 26 155 0.0 0.0 0.00 1.40 1.40 88 1009.1
20260904034102 -17 155 0.0 0.0 0.00 1.40 1.40 1009.1
20260904034000 -17 155 0.0 0.0 0.00 1.40 1.40 1009.1
20260904033904 -17 155 0.0 0.0 0.00 1.40 1.40 1009.1
20260904033803 -17 155 0.0 0.0 0.00 1.40 1.40 1009.1
20260904033503 -17 0.0 0.0 0.00 0.00 0.00 1009.1
20260904033211 -17 0.0 0.0 0.00 1.40 1.40
20260904033003 -17 0.0 0.0 0.00 1.40 1.40
20260904032936 -17 0.0 0.0 0.00 1.40 1.40
20260904032923 -17 0.0 0.0 0.00 1.40 1.40
20260904032752 -17 0.0 0.0 0.00 1.40 1.40
20260904032748 -17 0.0 0.0 0.00 1.40 1.40
20260904032335 -17 0.0 0.0 0.00 1.40 1.40
20260904032110 -17 0.0 0.0 0.00 1.40 1.40 1009.2
20260904031907 -17 0.0 0.0 0.00 1.40 1.40 1009.2
20260904031709 -17 0.0 0.0 0.00 1.40 1.40 1009.2
20260904031639 26 148 0.0 0.0 0.00 1.40 1.40 88 1009.2
20260904031437 26 148 0.0 0.0 0.00 1.40 1.40 88 1009.2
20260904031212 26 148 0.0 0.0 0.00 1.40 1.40 88 1009.2
20260904031011 26 148 0.0 0.0 0.00 1.40 1.40 88 1009.1
20260904030911 26 148 0.0 0.0 0.00 1.40 1.40 88 1009.2
20260904030811 26 148 0.0 0.0 0.00 1.40 1.40 88 1009.2
20260904030615 26 148 0.0 0.0 0.00 1.40 1.40 88 1009.2
20260904030412 26 141 0.0 0.0 0.00 1.40 1.40 88 1009.2
20260904030220 26 123 0.0 0.0 0.00 1.40 1.40 88 1009.2
20260904030213 26 123 0.0 0.0 0.00 1.40 1.40 88 1009.2
20260904025911 26 123 0.0 0.0 0.00 1.40 1.40 88 1009.2
20260904025812 26 123 0.0 0.0 0.00 1.40 1.40 88 1009.1
20260904025611 26 123 0.0 0.0 0.00 1.40 1.40 88 1009.2
20260904025413 26 120 0.0 0.0 0.00 1.40 1.40 88 1009.1
20260904025211 26 120 0.0 0.0 0.00 1.40 1.40 88 1009.1
20260904025027 26 120 0.0 0.0 0.00 1.40 1.40 88 1009.2
20260904024909 26 120 0.0 0.0 0.00 1.40 1.40 88 1009.1
20260904024811 26 120 0.0 0.0 0.00 1.40 1.40 88 1009.2
20260904024712 26 121 0.0 0.0 0.00 1.40 1.40 88 1009.1
20260904024412 26 114 0.0 0.0 0.00 1.40 1.40 87 1009.1
20260904024211 26 111 0.0 0.0 0.00 1.40 1.40 87 1009.1
20260904024111 26 111 0.0 0.0 0.00 1.40 1.40 87 1009.1
20260904023904 26 111 0.0 0.0 0.00 1.40 1.40 87 1009.0
20260904023811 26 113 0.0 0.0 0.00 1.40 1.40 87 1009.0
20260904023702 26 111 0.0 0.0 0.00 1.40 1.40 87 1009.0
20260904023405 26 110 0.0 0.0 0.00 1.40 1.40 87 1009.0
20260904023204 26 110 0.0 0.0 0.00 1.40 1.40 87 1009.0
20260904023004 26 109 0.0 0.0 0.00 1.40 1.40 87 1009.0
20260904022902 26 109 0.0 0.0 0.00 1.40 1.40 87 1009.0
20260904022803 -17 107 0.0 0.0 0.00 1.40 1.40 1009.0
20260904022709 -17 0.0 0.0 0.00 0.00 0.00 1009.1
20260904022420 -17 0.0 0.0 0.00 0.00 0.00 1009.0
20260904022132 -17 0.0 0.0 0.00 1.40 1.40
20260904022107 -17 0.0 0.0 0.00 1.40 1.40
20260904021814 -17 0.0 0.0 0.00 1.40 1.40
20260904021606 -17 0.0 0.0 0.00 1.40 1.40
20260904021335 -17 0.0 0.0 0.00 1.40 1.40
20260904021136 -17 0.0 0.0 0.00 1.40 1.40
20260904021104 -17 0.0 0.0 0.00 1.40 1.40
20260904021034 -17 0.0 0.0 0.00 1.40 1.40 1008.8
20260904020738 -17 0.0 0.0 0.00 1.40 1.40 1008.8
20260904020617 26 134 0.0 0.0 0.00 1.40 1.40 85 1008.8
20260904020609 -17 0.0 0.0 0.00 1.40 1.40 1008.8
20260904020306 26 134 0.0 0.0 0.00 1.40 1.40 85 1008.8
20260904020216 26 134 0.0 0.0 0.00 1.40 1.40 85 1008.8
20260904020114 26 134 0.0 0.0 0.00 1.40 1.40 85 1008.8
20260904015902 26 134 0.0 0.0 0.00 1.40 1.40 85 1008.8
20260904015703 26 134 0.0 0.0 0.00 1.40 1.40 85 1008.8
20260904015601 26 134 0.0 0.0 0.00 1.40 1.40 85 1008.8
20260904015503 26 131 0.0 0.0 0.00 1.40 1.40 85 1008.8
20260904015448 26 131 0.0 0.0 0.00 1.40 1.40 85 1008.9
20260904015358 26 42 0.0 0.0 0.00 1.40 1.40 84 1008.8
20260904015316 26 42 0.0 0.0 0.00 1.40 1.40 84 1008.8
20260904014904 26 44 0.0 0.0 0.00 1.40 1.40 84 1008.9
20260904014804 26 44 0.0 0.0 0.00 1.40 1.40 84 1008.9
20260904014607 26 44 0.0 0.0 0.00 1.40 1.40 84 1008.9
20260904014501 26 45 0.0 0.0 0.00 1.40 1.40 84 1008.8
20260904014359 26 44 0.0 0.0 0.00 1.40 1.40 84 1008.9
20260904014349 26 44 0.0 0.0 0.00 1.40 1.40 84 1008.9
20260904014313 26 44 0.0 0.0 0.00 1.40 1.40 84 1008.9
20260904014000 26 42 0.0 0.0 0.00 0.00 0.00 84 1008.9
20260904013658 -17 44 0.0 0.0 0.00 0.00 0.00 1008.8
20260904013559 -17 44 0.0 0.0 0.00 0.00 0.00 1008.9
20260904013500 -17 44 0.0 0.0 0.00 0.00 0.00 1008.9
20260904013441 -17 44 0.0 0.0 0.00 0.00 0.00 1008.8
20260904013323 -17 0.0 0.0 0.00 0.00 0.00 1008.8
20260904012704 -17 0.0 0.0 0.00 1.40 1.40
20260904012505 -17 0.0 0.0 0.00 1.40 1.40
20260904012454 -17 0.0 0.0 0.00 1.40 1.40
20260904012433 -17 0.0 0.0 0.00 1.40 1.40
20260904012033 -17 0.0 0.0 0.00 1.40 1.40
20260904011832 -17 0.0 0.0 0.00 1.40 1.40
20260904011706 -17 0.0 0.0 0.00 1.40 1.40 1008.6
20260904011632 -17 0.0 0.0 0.00 1.40 1.40 1008.6
20260904011431 -17 0.0 0.0 0.00 1.40 1.40 1008.6
20260904011303 27 42 0.0 0.0 0.00 1.40 1.40 81 1008.6
20260904011134 27 42 0.0 0.0 0.00 1.40 1.40 81 1008.6
20260904011007 27 42 0.0 0.0 0.00 1.40 1.40 81 1008.6
20260904010904 27 42 0.0 0.0 0.00 1.40 1.40 81 1008.5
20260904010631 27 42 0.0 0.0 0.00 1.40 1.40 81 1008.6
20260904010535 27 42 0.0 0.0 0.00 1.40 1.40 81 1008.5
20260904010411 27 42 0.0 0.0 0.00 1.40 1.40 81 1008.5
20260904010108 27 42 0.0 0.0 0.00 1.40 1.40 81 1008.5
20260904005928 27 35 0.0 0.0 0.00 1.40 1.40 81 1008.5
20260904005826 27 35 0.0 0.0 0.00 1.40 1.40 81 1008.5
20260904005607 27 37 0.0 0.0 0.00 1.40 1.40 81 1008.4
20260904005524 27 35 0.0 0.0 0.00 1.40 1.40 81 1008.5
20260904005424 28 32 0.0 0.0 0.00 1.40 1.40 80 1008.4
20260904005107 28 31 0.0 0.0 0.00 1.40 1.40 80 1008.5
20260904004922 28 32 0.0 0.0 0.00 1.40 1.40 80 1008.5
20260904004713 28 32 0.0 0.0 0.00 1.40 1.40 80 1008.4
20260904004606 28 31 0.0 0.0 0.00 1.40 1.40 80 1008.5
20260904004511 28 31 0.0 0.0 0.00 1.40 1.40 79 1008.5
20260904004433 28 31 0.0 0.0 0.00 1.40 1.40 79 1008.5
20260904004107 28 31 0.0 0.0 0.00 1.40 1.40 79 1008.4
20260904003924 28 31 0.0 0.0 0.00 1.40 1.40 78 1008.5
20260904003914 28 30 0.0 0.0 0.00 1.40 1.40 79 1008.5
20260904003839 28 30 0.0 0.0 0.00 1.40 1.40 78 1008.5
20260904003511 28 31 0.0 1.6 0.00 1.40 1.40 78 1008.5
20260904003312 28 0 0.0 1.6 0.00 1.40 1.40 78 1008.5
20260904003215 28 42 0.0 1.6 0.00 1.40 1.40 78 1008.5
20260904003111 28 42 0.0 1.6 0.00 1.40 1.40 78 1008.5
20260904002912 28 42 0.0 1.6 0.00 1.40 1.40 78 1008.4
20260904002806 28 48 0.0 1.6 0.00 1.40 1.40 77 1008.4
20260904002611 28 48 0.0 1.6 0.00 1.40 1.40 77 1008.4
20260904002509 28 47 0.0 0.0 0.00 1.40 1.40 77 1008.5
20260904002307 28 49 0.0 0.0 0.00 1.40 1.40 77 1008.4
20260904002115 29 48 0.0 0.0 0.00 1.40 1.40 77 1008.4
20260904002107 29 48 0.0 0.0 0.00 1.40 1.40 77 1008.5
20260904001906 29 48 0.0 0.0 0.00 1.40 1.40 76 1008.5
20260904001804 29 48 0.0 0.0 0.00 1.40 1.40 76 1008.4
20260904001607 29 48 0.0 0.0 0.00 1.40 1.40 76 1008.5
20260904001506 29 47 0.0 0.0 0.00 1.40 1.40 76 1008.5
20260904001404 29 51 0.0 0.0 0.00 1.40 1.40 76 1008.5
20260904001113 29 54 0.0 0.0 0.00 1.40 1.40 75 1008.4
20260904001104 29 56 0.0 0.0 0.00 1.40 1.40 75 1008.4
20260904000906 30 55 0.0 0.0 0.00 1.40 1.40 75 1008.5
20260904000708 30 54 0.0 0.0 0.00 1.40 1.40 74 1008.3
20260904000606 30 55 0.0 0.0 0.00 1.40 1.40 74 1008.4
20260904000432 30 109 0.0 0.0 0.00 1.40 1.40 74 1008.4
20260904000330 30 175 0.0 1.6 0.00 1.40 1.40 74 1008.4
20260904000111 30 176 0.0 4.8 0.00 1.40 1.40 74 1008.5
20260904000045 30 178 0.0 4.8 0.00 1.40 1.40 74 1008.5
20260903235832 30 182 0.0 4.8 0.00 1.40 1.40 73 1008.5
20260903235619 30 176 0.0 4.8 0.00 1.40 1.40 73 1008.5
20260903235606 30 178 0.0 4.8 0.00 1.40 1.40 73 1008.5
20260903235513 30 178 0.0 4.8 0.00 1.40 1.40 73 1008.5
20260903235214 30 176 0.0 4.8 0.00 1.40 1.40 72 1008.5
20260903235115 30 173 0.0 4.8 0.00 1.40 1.40 72 1008.5
20260903235104 30 178 0.0 4.8 0.00 1.40 1.40 72 1008.5
20260903234911 30 168 0.0 4.8 0.00 1.40 1.40 72 1008.6
20260903234857 30 165 0.0 4.8 0.00 1.40 1.40 72 1008.5
20260903234824 30 169 0.0 4.8 0.00 1.40 1.40 72 1008.5
20260903234412 30 166 0.0 6.4 0.00 1.40 1.40 72 1008.6
20260903234213 30 166 0.0 6.4 0.00 1.40 1.40 72 1008.5
20260903234117 30 165 0.0 6.4 0.00 1.40 1.40 72 1008.6
20260903234104 30 168 0.0 6.4 0.00 1.40 1.40 72 1008.6
20260903233920 30 166 0.0 8.0 0.00 1.40 1.40 71 1008.6
20260903233911 30 165 0.0 8.0 0.00 1.40 1.40 71 1008.6
20260903233855 30 166 0.0 6.4 0.00 1.40 1.40 71 1008.6
20260903233410 30 202 0.0 8.0 0.00 1.40 1.40 71 1008.7
20260903233210 30 165 0.0 8.0 0.00 1.40 1.40 71 1008.6
20260903233105 30 169 0.0 8.0 0.00 1.40 1.40 71 1008.6
20260903233009 30 166 0.0 8.0 0.00 1.40 1.40 70 1008.6
20260903232911 30 169 0.0 14.5 0.00 1.40 1.40 71 1008.5
20260903232856 30 164 0.0 14.5 0.00 1.40 1.40 71 1008.6
20260903232409 30 171 0.0 14.5 0.00 1.40 1.40 71 1008.5
20260903232306 30 171 0.0 14.5 0.00 1.40 1.40 71 1008.3
20260903232102 30 169 0.0 14.5 0.00 1.40 1.40 70 1008.5
20260903232007 30 168 0.0 14.5 0.00 1.40 1.40 70 1008.3
20260903231807 30 188 0.0 6.4 0.00 1.40 1.40 70 1008.3
20260903231713 30 188 0.0 6.4 0.00 1.40 1.40 70 1008.3
20260903231601 30 188 0.0 6.4 0.00 1.40 1.40 70 1008.3
20260903231407 30 188 0.0 9.7 0.00 1.40 1.40 70 1008.2
20260903231205 30 188 0.0 9.7 0.00 1.40 1.40 70 1008.2
20260903231107 30 165 0.0 9.7 0.00 1.40 1.40 70 1008.2
20260903231004 30 168 0.0 9.7 0.00 1.40 1.40 71 1008.2
20260903230922 30 158 0.0 9.7 0.00 1.40 1.40 70 1008.1
20260903230905 30 158 0.0 9.7 0.00 1.40 1.40 70 1008.1
20260903230849 30 159 0.0 9.7 0.00 1.40 1.40 70 1008.0
20260903230404 30 52 0.0 8.0 0.00 1.40 1.40 71 1008.1
20260903230300 30 161 0.0 8.0 0.00 1.40 1.40 70 1008.1
20260903230057 30 37 0.0 8.0 0.00 1.40 1.40 70 1008.1
20260903230002 30 165 0.0 8.0 0.00 1.40 1.40 71 1008.1
20260903225859 30 169 0.0 16.1 0.00 1.40 1.40 71 1007.6
20260903225845 30 154 0.0 16.1 0.00 1.40 1.40 70 1007.9
20260903225546 30 171 0.0 16.1 0.00 1.40 1.40 71 1007.6
20260903225347 30 169 0.0 16.1 0.00 1.40 1.40 70 1007.6
20260903225244 30 94 0.0 16.1 0.00 1.40 1.40 70 1007.8
20260903225055 30 166 0.0 16.1 0.00 1.40 1.40 70 1007.9
20260903224943 30 183 0.0 16.1 0.00 1.40 1.40 69 1007.9
20260903224933 30 173 0.0 16.1 0.00 1.40 1.40 70 1007.9
20260903224843 30 183 0.0 16.1 0.00 1.40 1.40 70 1007.9
20260903224541 30 183 0.0 16.1 0.00 1.40 1.40 70 1007.9
20260903224342 30 220 0.0 16.1 0.00 1.40 1.40 69 1007.8
20260903224144 30 173 0.0 14.5 0.00 1.40 1.40 70 1007.8
20260903224052 30 165 0.0 14.5 0.00 1.40 1.40 70 1007.8
20260903223947 30 175 0.0 14.5 0.00 1.40 1.40 69 1007.5
20260903223940 30 188 0.0 14.5 0.00 1.40 1.40 70 1007.6
20260903223847 30 173 0.0 14.5 0.00 1.40 1.40 70 1007.5
20260903223831 30 13 0.0 14.5 0.00 1.40 1.40 70 1007.5
20260903223338 30 171 0.0 14.5 0.00 1.40 1.40 70 1007.6
20260903223238 30 20 0.0 11.3 0.00 1.40 1.40 70 1007.8
20260903223052 30 35 0.0 11.3 0.00 1.40 1.40 70 1007.8
20260903222935 30 168 0.0 11.3 0.00 1.40 1.40 69 1007.9
20260903222732 30 172 0.0 11.3 0.00 1.40 1.40 69 1007.8
20260903222551 30 120 0.0 11.3 0.00 1.40 1.40 69 1007.8
20260903222532 30 165 0.0 11.3 0.00 1.40 1.40 69 1007.8
20260903222333 30 189 0.0 17.7 0.00 1.40 1.40 69 1007.8
20260903222225 30 179 0.0 17.7 0.00 1.40 1.40 69 1007.8
20260903222048 30 178 0.0 17.7 0.00 1.40 1.40 69 1007.8
20260903221931 30 172 0.0 17.7 0.00 1.40 1.40 69 1007.9
20260903221826 30 166 0.0 17.7 0.00 1.40 1.40 69 1007.9
20260903221535 30 171 0.0 17.7 0.00 1.40 1.40 68 1007.9
20260903221531 30 169 0.0 17.7 0.00 1.40 1.40 68 1007.9
20260903221330 30 186 0.0 17.7 0.00 1.40 1.40 68 1008.0
20260903221132 30 178 0.0 11.3 0.00 1.40 1.40 68 1008.0
20260903221030 30 178 0.0 11.3 0.00 1.40 1.40 68 1008.1
20260903220932 30 178 0.0 11.3 0.00 1.40 1.40 68 1008.1
20260903220815 31 180 0.0 11.3 0.00 1.40 1.40 67 1008.0
20260903220520 31 165 0.0 9.7 0.00 1.40 1.40 69 1008.1
20260903220515 31 166 0.0 9.7 0.00 1.40 1.40 69 1008.1
20260903220411 31 202 0.0 9.7 0.00 1.40 1.40 67 1008.0
20260903220111 31 193 0.0 9.7 0.00 1.40 1.40 68 1008.0
20260903220012 31 189 0.0 9.7 0.00 1.40 1.40 68 1008.0
20260903215912 31 172 0.0 8.0 0.00 1.40 1.40 68 1008.0
20260903215711 31 1 0.0 8.0 0.00 1.40 1.40 69 1008.0
20260903215614 31 216 0.0 14.5 0.00 1.40 1.40 68 1008.1
20260903215515 31 216 0.0 14.5 0.00 1.40 1.40 68 1008.1
20260903215356 30 245 0.0 14.5 0.00 1.40 1.40 68 1008.1
20260903215324 30 128 0.0 14.5 0.00 1.40 1.40 69 1008.1
20260903215319 31 176 0.0 14.5 0.00 1.40 1.40 68 1008.1
20260903214913 30 178 0.0 16.1 0.00 1.40 1.40 69 1008.2
20260903214712 30 169 0.0 16.1 0.00 1.40 1.40 68 1008.4
20260903214512 30 168 0.0 16.1 0.00 1.40 1.40 68 1008.4
20260903214311 30 228 0.0 17.7 0.00 1.40 1.40 68 1008.4
20260903214213 30 159 0.0 17.7 0.00 1.40 1.40 67 1008.2
20260903214011 30 140 0.0 17.7 0.00 1.40 1.40 68 1008.2
20260903213912 30 165 0.0 17.7 0.00 1.40 1.40 68 1008.3
20260903213810 31 37 0.0 17.7 0.00 1.40 1.40 67 1008.3
20260903213514 31 145 0.0 17.7 0.00 1.40 1.40 67 1008.4
20260903213311 31 0 0.0 9.7 0.00 1.40 1.40 67 1008.5
20260903213111 31 200 0.0 9.7 0.00 1.40 1.40 69 1008.5
20260903213012 31 55 0.0 9.7 0.00 1.40 1.40 69 1008.5
20260903212911 30 175 0.0 11.3 0.00 1.40 1.40 69 1008.5
20260903212814 30 175 0.0 11.3 0.00 1.40 1.40 70 1008.3
20260903212511 30 186 0.0 11.3 0.00 1.40 1.40 69 1008.5
20260903212413 30 165 0.0 11.3 0.00 1.40 1.40 69 1008.5
20260903212111 30 21 0.0 16.1 0.00 1.40 1.40 69 1008.4
20260903212013 30 179 0.0 16.1 0.00 1.40 1.40 68 1008.4
20260903211912 30 171 0.0 16.1 0.00 1.40 1.40 69 1008.4
20260903211711 30 155 0.0 16.1 0.00 1.40 1.40 69 1008.4
20260903211512 30 141 0.0 16.1 0.00 1.40 1.40 68 1008.5
20260903211313 30 144 0.0 16.1 0.00 1.40 1.40 68 1008.5
20260903211210 30 176 0.0 16.1 0.00 1.40 1.40 67 1008.4
20260903211004 30 182 0.0 16.1 0.00 1.40 1.40 67 1008.5
20260903210912 31 154 0.0 16.1 0.00 1.40 1.40 66 1008.4
20260903210711 31 162 0.0 11.3 0.00 1.40 1.40 66 1008.4
20260903210528 31 200 0.0 11.3 0.00 1.40 1.40 69 1008.3
20260903210503 31 157 0.0 11.3 0.00 1.40 1.40 69 1008.3
20260903210341 31 173 0.0 11.3 0.00 1.40 1.40 68 1008.3
20260903210312 31 118 0.0 11.3 0.00 1.40 1.40 68 1008.3
20260903210254 31 173 0.0 11.3 0.00 1.40 1.40 68 1008.4
20260903205911 31 161 0.0 11.3 0.00 1.40 1.40 69 1008.4
20260903205814 30 165 0.0 8.0 0.00 1.40 1.40 68 1008.4
20260903205508 30 183 0.0 8.0 0.00 1.40 1.40 70 1008.4
20260903205314 30 166 0.0 0.0 0.00 1.40 1.40 70 1008.7
20260903205306 30 148 0.0 4.8 0.00 1.40 1.40 69 1008.5
20260903205238 30 175 0.0 0.0 0.00 1.40 1.40 69 1008.6
20260903204902 30 161 0.0 0.0 0.00 1.40 1.40 70 1008.7
20260903204759 30 162 0.0 0.0 0.00 1.40 1.40 71 1008.7
20260903204511 30 186 0.0 3.2 0.00 1.40 1.40 72 1008.9
20260903204456 30 158 0.0 3.2 0.00 1.40 1.40 72 1008.9
20260903204400 29 144 0.0 3.2 0.00 1.40 1.40 71 1008.8
20260903204310 29 195 0.0 3.2 0.00 1.40 1.40 71 1008.9
20260903204239 29 192 0.0 3.2 0.00 1.40 1.40 71 1008.8
20260903203906 29 137 0.0 3.2 0.00 1.40 1.40 70 1008.8
20260903203652 29 180 0.0 0.0 0.00 1.40 1.40 71 1008.9
20260903203500 29 196 0.0 0.0 0.00 1.40 1.40 72 1008.8
20260903203108 -17 0.0 0.0 0.00 1.40 1.40
20260903202839 -17 0.0 0.0 0.00 1.40 1.40
20260903202743 -17 0.0 0.0 0.00 1.40 1.40
20260903202739 -17 0.0 0.0 0.00 1.40 1.40
20260903202549 -17 0.0 0.0 0.00 1.40 1.40
20260903202516 -17 0.0 0.0 0.00 1.40 1.40
20260903202507 -17 0.0 0.0 0.00 1.40 1.40
20260903202008 -17 0.0 0.0 0.00 1.40 1.40 1008.8
20260903201808 -17 0.0 0.0 0.00 1.40 1.40 1008.8
20260903201713 -17 0.0 0.0 0.00 1.40 1.40 1008.8
20260903201607 30 185 0.0 4.8 0.00 1.40 1.40 69 1008.8
20260903201449 30 185 0.0 8.0 0.00 1.40 1.40 69 1008.8
20260903201439 30 185 0.0 8.0 0.00 1.40 1.40 69 1008.8
20260903200931 30 185 0.0 8.0 0.00 1.40 1.40 69 1008.8
20260903200830 30 185 0.0 8.0 0.00 1.40 1.40 69 1008.8
20260903200702 30 185 0.0 8.0 0.00 1.40 1.40 69 1008.8
20260903200507 30 30 0.0 9.7 0.00 1.40 1.40 68 1008.9
20260903200454 30 32 0.0 9.7 0.00 1.40 1.40 69 1009.0
20260903200432 30 25 0.0 9.7 0.00 1.40 1.40 70 1008.9
20260903200113 30 178 0.0 9.7 0.00 1.40 1.40 69 1009.0
20260903195906 30 178 0.0 19.3 0.00 1.40 1.40 69 1009.1
20260903195810 30 35 0.0 19.3 0.00 1.40 1.40 69 1009.0
20260903195706 30 35 0.0 19.3 0.00 1.40 1.40 69 1009.0
20260903195505 31 182 0.0 19.3 0.00 1.40 1.40 68 1009.0
20260903195454 30 190 0.0 19.3 0.00 1.40 1.40 67 1009.0
20260903195429 30 97 0.0 19.3 0.00 1.40 1.40 68 1009.1
20260903195104 30 179 0.0 19.3 0.00 1.40 1.40 66 1009.0
20260903194906 31 166 0.0 9.7 0.00 1.40 1.40 69 1009.0
20260903194813 31 103 0.0 11.3 0.00 1.40 1.40 70 1009.0
20260903194708 31 103 0.0 11.3 0.00 1.40 1.40 70 1009.0
20260903194531 30 27 0.0 11.3 0.00 1.40 1.40 72 1009.4
20260903194504 30 175 0.0 11.3 0.00 1.40 1.40 69 1009.2
20260903194450 30 0 0.0 11.3 0.00 1.40 1.40 70 1009.4
20260903194104 30 164 0.0 11.3 0.00 1.40 1.40 68 1009.4
20260903193904 30 169 0.0 16.1 0.00 1.40 1.40 70 1009.5
20260903193707 30 196 0.0 16.1 0.00 1.40 1.40 70 1009.4
20260903193508 30 189 0.0 16.1 0.00 1.40 1.40 68 1009.4
20260903193407 30 142 0.0 16.1 0.00 1.40 1.40 67 1009.4
20260903193204 30 169 0.0 16.1 0.00 1.40 1.40 66 1009.4
20260903193104 30 224 0.0 16.1 0.00 1.40 1.40 68 1009.4
20260903193004 31 145 0.0 11.3 0.00 1.40 1.40 70 1009.4
20260903192704 31 176 0.0 11.3 0.00 1.40 1.40 68 1009.3
20260903192505 30 252 0.0 16.1 0.00 1.40 1.40 70 1009.3
20260903192307 30 166 0.0 16.1 0.00 1.40 1.40 68 1009.3
20260903192205 30 168 0.0 16.1 0.00 1.40 1.40 69 1009.3
20260903192104 30 173 0.0 16.1 0.00 1.40 1.40 71 1009.3
20260903192006 30 182 0.0 16.1 0.00 1.40 1.40 68 1009.2
20260903191705 30 193 0.0 16.1 0.00 1.40 1.40 70 1009.2
20260903191612 30 217 0.0 14.5 0.00 1.40 1.40 69 1009.2
20260903191306 30 168 0.0 14.5 0.00 1.40 1.40 71 1009.3
20260903191204 30 159 0.0 14.5 0.00 1.40 1.40 72 1009.3
20260903191104 30 186 0.0 14.5 0.00 1.40 1.40 69 1009.3
20260903190904 30 68 0.0 14.5 0.03 1.40 1.40 70 1009.3
20260903190707 30 180 0.0 9.7 0.03 1.40 1.40 69 1009.4
20260903190504 30 195 0.0 9.7 0.03 1.40 1.40 70 1009.3
20260903190454 30 210 0.0 9.7 0.08 1.40 1.40 70 1009.4
20260903190429 30 234 0.0 9.7 0.03 1.40 1.40 70 1009.3
20260903190119 30 162 0.0 0.0 0.18 1.27 1.40 71 1009.3
20260903190107 30 173 0.0 9.7 0.10 1.40 1.40 70 1009.4
20260903185704 30 65 0.0 0.0 0.28 1.27 1.40 71 1009.2
20260903185506 30 166 0.0 0.0 0.51 1.27 1.40 70 1009.2
20260903185307 30 206 0.0 0.0 0.51 1.27 1.40 70 1009.2
20260903185203 30 179 0.0 0.0 0.51 1.27 1.40 69 1009.3
20260903185104 30 166 0.0 0.0 0.56 1.27 1.40 70 1009.3
20260903184904 30 221 0.0 0.0 0.61 1.27 1.40 70 1009.4
20260903184717 29 190 0.0 0.0 0.66 1.27 1.40 72 1009.4
20260903184706 30 178 0.0 0.0 0.64 1.27 1.40 73 1009.4
20260903184305 29 200 0.0 0.0 0.76 1.27 1.40 72 1009.4
20260903184203 29 168 0.0 0.0 0.79 1.27 1.40 72 1009.4
20260903184106 29 186 0.0 0.0 0.79 1.27 1.40 73 1009.4
20260903183906 29 159 0.0 0.0 0.79 1.27 1.40 73 1009.4
20260903183704 29 176 0.0 0.0 0.79 1.27 1.40 75 1009.4
20260903183505 29 220 0.0 0.0 0.79 1.27 1.40 76 1009.4
20260903183314 28 157 0.0 0.0 0.79 1.27 1.40 76 1009.4
20260903183306 28 154 0.0 0.0 0.79 1.27 1.40 75 1009.5
20260903183206 28 203 0.0 0.0 0.79 1.27 1.40 76 1009.5
20260903182905 28 200 0.0 0.0 0.79 1.27 1.40 78 1009.5
20260903182704 28 154 0.0 0.0 0.79 1.27 1.40 81 1009.4
20260903182505 28 185 0.0 0.0 0.79 1.27 1.40 84 1009.4
20260903182307 27 196 0.0 0.0 0.79 1.27 1.40 82 1009.4
20260903182208 27 162 0.0 0.0 0.79 1.27 1.40 84 1009.5
20260903182203 27 159 0.0 0.0 0.79 1.27 1.40 84 1009.4
20260903181906 26 176 0.0 0.0 0.79 1.27 1.40 85 1009.5
20260903181704 26 176 0.0 0.0 0.79 1.27 1.40 87 1009.5
20260903181504 26 171 0.0 0.0 0.79 1.27 1.40 86 1009.5
20260903181404 25 169 0.0 0.0 0.79 1.27 1.40 87 1009.6
20260903181203 25 169 0.0 0.0 0.79 1.27 1.40 87 1009.7
20260903181104 25 147 0.0 0.0 0.79 1.27 1.40 87 1009.6
20260903180905 25 154 0.0 0.0 0.76 1.27 1.37 88 1009.8
20260903180809 25 164 0.0 0.0 0.76 1.27 1.37 88 1009.7
20260903180704 25 164 0.0 0.0 0.76 1.27 1.37 88 1009.7
20260903180504 25 193 0.0 0.0 0.76 1.27 1.37 88 1009.9
20260903180308 25 196 0.0 0.0 0.76 1.27 1.32 88 1009.8
20260903180203 25 25 0.0 0.0 0.71 1.27 1.30 88 1009.9
20260903180104 25 27 0.0 0.0 0.69 1.27 1.27 87 1009.8
20260903180005 25 180 0.0 0.0 0.61 0.61 0.74 87 1009.7
20260903175704 25 178 0.0 0.0 0.51 0.61 0.64 86 1009.8
20260903175506 26 157 0.0 0.0 0.30 0.61 0.41 85 1009.6
20260903175405 26 157 0.0 0.0 0.30 0.61 0.41 85 1009.5
20260903175203 26 157 0.0 0.0 0.33 0.61 0.41 85 1009.4
20260903175105 26 196 0.0 0.0 0.28 0.61 0.38 85 1009.4
20260903174905 26 207 0.0 0.0 0.23 0.61 0.33 84 1009.2
20260903174704 26 189 0.0 0.0 0.20 0.61 0.30 84 1009.1
20260903174604 26 157 0.0 0.0 0.18 0.61 0.28 84 1009.2
20260903174307 26 168 0.0 0.0 0.08 0.61 0.18 84 1009.4
20260903174203 26 182 0.0 0.0 0.05 0.61 0.18 84 1009.3
20260903174104 27 41 0.0 0.0 0.08 0.61 0.18 85 1009.2
20260903173904 27 171 0.0 0.0 0.18 0.61 0.18 85 1009.4
20260903173705 27 169 0.0 0.0 0.20 0.61 0.18 85 1009.7
20260903173606 27 166 0.0 0.0 0.23 0.61 0.18 87 1009.7
20260903173304 27 161 0.0 0.0 0.28 0.61 0.18 87 1009.7
20260903173210 27 110 0.0 0.0 0.33 0.61 0.18 90 1009.8
20260903173203 27 149 0.0 0.0 0.33 0.61 0.18 89 1009.8
20260903172906 27 111 0.0 0.0 0.36 0.61 0.18 90 1009.7
20260903172705 26 107 0.0 0.0 0.38 0.61 0.18 91 1009.8
20260903172506 26 47 0.0 0.0 0.41 0.61 0.18 93 1009.7
20260903172312 26 45 0.0 0.0 0.43 0.61 0.18 92 1009.7
20260903172211 26 47 0.0 0.0 0.43 0.61 0.18 92 1009.7
20260903172204 26 45 0.0 0.0 0.43 0.61 0.18 93 1009.8
20260903171904 25 47 0.0 0.0 0.43 0.61 0.18 93 1009.8
20260903171807 25 47 0.0 0.0 0.43 0.61 0.18 94 1009.8
20260903171704 25 47 0.0 0.0 0.43 0.61 0.18 94 1009.8
20260903171504 25 45 0.0 0.0 0.43 0.61 0.18 94 1009.9
20260903171304 25 39 0.0 0.0 0.43 0.61 0.18 94 1009.9
20260903171205 24 39 0.0 0.0 0.43 0.61 0.18 94 1010.0
20260903171104 24 41 0.0 0.0 0.43 0.61 0.18 94 1010.0
20260903170905 25 39 0.0 0.0 0.43 0.61 0.18 95 1009.9
20260903170808 24 39 0.0 0.0 0.43 0.61 0.18 94 1010.1
20260903170704 24 39 0.0 0.0 0.43 0.61 0.18 94 1010.1
20260903170509 24 41 0.0 0.0 0.43 0.61 0.61 92 1010.2
20260903170305 24 41 0.0 0.0 0.43 0.61 0.61 92 1010.1
20260903170205 24 41 0.0 0.0 0.43 0.61 0.61 92 1010.2
20260903170106 24 41 0.0 0.0 0.43 0.61 0.61 92 1010.2
20260903165930 24 41 0.0 0.0 0.43 0.18 0.61 92 1010.3
20260903165734 24 41 0.0 0.0 0.43 0.18 0.61 91 1010.4
20260903165703 24 41 0.0 0.0 0.43 0.18 0.61 92 1010.3
20260903165507 25 41 0.0 0.0 0.38 0.18 0.56 90 1010.4
20260903165454 24 41 0.0 0.0 0.41 0.18 0.58 91 1010.5
20260903165422 24 41 0.0 0.0 0.38 0.18 0.56 91 1010.4
20260903165034 25 44 0.0 0.0 0.38 0.18 0.56 90 1010.3
20260903164834 25 44 0.0 0.0 0.38 0.18 0.56 90 1010.2
20260903164700 25 51 0.0 0.0 0.38 0.18 0.56 89 1010.1
20260903164608 25 52 0.0 0.0 0.38 0.18 0.56 89 1010.2
20260903164504 25 93 0.0 0.0 0.38 0.18 0.56 89 1010.1
20260903164309 25 47 0.0 0.0 0.38 0.18 0.53 88 1010.1
20260903164159 25 47 0.0 0.0 0.38 0.18 0.53 88 1010.1
20260903164008 25 51 0.0 0.0 0.33 0.18 0.51 88 1010.2
20260903163808 25 32 0.0 0.0 0.25 0.18 0.41 87 1010.2
20260903163700 25 37 0.0 0.0 0.23 0.18 0.41 87 1010.2
20260903163605 25 8 0.0 0.0 0.23 0.18 0.38 86 1010.2
20260903163405 26 120 0.0 0.0 0.18 0.18 0.33 86 1010.3
20260903163207 26 133 0.0 0.0 0.10 0.18 0.28 86 1010.5
20260903163159 26 133 0.0 0.0 0.10 0.18 0.28 86 1010.5
20260903163106 26 133 0.0 0.0 0.08 0.18 0.25 86 1010.5
20260903162804 26 133 0.0 0.0 0.08 0.18 0.23 86 1010.4
20260903162658 26 131 0.0 0.0 0.05 0.18 0.23 85 1010.5
20260903162611 26 131 0.0 0.0 0.05 0.18 0.20 85 1010.5
20260903162403 26 131 0.0 0.0 0.03 0.18 0.18 85 1010.5
20260903162206 26 134 0.0 0.0 0.00 0.18 0.18 84 1010.2
20260903162201 26 133 0.0 0.0 0.00 0.18 0.18 84 1010.2
20260903162002 26 155 0.0 0.0 0.00 0.18 0.18 84 1010.2
20260903161805 26 155 0.0 0.0 0.00 0.18 0.18 84 1010.2
20260903161706 26 157 0.0 0.0 0.00 0.18 0.18 84 1010.3
20260903161702 26 155 0.0 0.0 0.00 0.18 0.18 84 1010.3
20260903161500 26 155 0.0 0.0 0.00 0.18 0.18 84 1010.3
20260903161206 26 157 0.0 0.0 0.00 0.18 0.18 84 1010.2
20260903161201 26 157 0.0 0.0 0.00 0.18 0.18 84 1010.3
20260903161002 26 155 0.0 0.0 0.00 0.18 0.18 84 1010.3
20260903160951 26 158 0.0 0.0 0.00 0.18 0.18 84 1010.4
20260903160923 26 157 0.0 0.0 0.00 0.18 0.18 84 1010.3
20260903160617 26 157 0.0 0.0 0.00 0.18 0.18 84 1010.4
20260903160408 26 155 0.0 0.0 0.00 0.18 0.18 84 1010.4
20260903160306 26 20 0.0 0.0 0.00 0.18 0.18 86 1010.4
20260903160151 26 20 0.0 0.0 0.00 0.18 0.18 86 1010.4
20260903160111 26 20 0.0 0.0 0.00 0.18 0.18 86 1010.3
20260903155935 25 161 0.0 0.0 0.00 0.18 0.18 86 1010.3
20260903155916 25 35 0.0 0.0 0.00 0.18 0.18 86 1010.3
20260903155553 25 94 0.0 0.0 0.00 0.18 0.18 85 1010.4
20260903155351 25 16 0.0 0.0 0.00 0.18 0.18 86 1010.3
20260903155151 25 0 0.0 0.0 0.00 0.18 0.18 85 1010.4
20260903155107 25 166 0.0 0.0 0.00 0.18 0.18 85 1010.2
20260903155059 25 166 0.0 0.0 0.00 0.18 0.18 85 1010.2
20260903155042 25 331 0.0 0.0 0.00 0.18 0.18 85 1010.3
20260903154643 25 155 0.0 0.0 0.00 0.18 0.18 85 1010.3
20260903154348 25 157 0.0 0.0 0.00 0.18 0.18 85 1010.2
20260903154146 25 128 0.0 0.0 0.00 0.18 0.18 85 1010.3
20260903154014 25 38 0.0 0.0 0.00 0.18 0.18 86 1010.2
20260903153948 25 137 0.0 0.0 0.00 0.18 0.18 86 1010.3
20260903153943 25 37 0.0 0.0 0.00 0.18 0.18 86 1010.3
20260903153544 25 37 0.0 0.0 0.00 0.18 0.18 86 1010.2
20260903153443 25 35 0.0 0.0 0.00 0.18 0.18 86 1010.2
20260903153140 25 35 0.0 0.0 0.00 0.18 0.18 86 1010.3
20260903153134 25 38 0.0 0.0 0.00 0.18 0.18 86 1010.3
20260903152938 25 144 0.0 0.0 0.00 0.18 0.18 87 1010.3
20260903152740 25 142 0.0 0.0 0.00 0.18 0.18 87 1010.2
20260903152633 25 142 0.0 0.0 0.00 0.18 0.18 87 1010.2
20260903152536 25 145 0.0 0.0 0.00 0.18 0.18 87 1010.2
20260903152445 25 37 0.0 0.0 0.00 0.18 0.18 88 1010.2
20260903152134 25 42 0.0 0.0 0.00 0.18 0.18 89 1010.2
20260903152030 25 41 0.0 0.0 0.00 0.18 0.18 89 1010.3
20260903151738 25 42 0.0 0.0 0.00 0.18 0.18 89 1010.2
20260903151631 24 42 0.0 0.0 0.00 0.18 0.18 88 1010.2
20260903151532 24 41 0.0 0.0 0.00 0.18 0.18 88 1010.2
20260903151350 24 49 0.0 0.0 0.00 0.18 0.18 88 1010.3
20260903151135 24 44 0.0 0.0 0.00 0.18 0.18 88 1010.3
20260903151048 24 44 0.0 0.0 0.00 0.18 0.18 88 1010.3
20260903150742 24 55 0.0 0.0 0.00 0.18 0.18 88 1010.3
20260903150623 24 54 0.0 0.0 0.00 0.18 0.18 88 1010.3
20260903150531 24 54 0.0 0.0 0.00 0.18 0.18 88 1010.3
20260903150446 24 39 0.0 0.0 0.00 0.18 0.18 88 1010.3
20260903150130 24 41 0.0 0.0 0.00 0.18 0.18 87 1010.4
20260903150124 24 39 0.0 0.0 0.00 0.18 0.18 87 1010.4
20260903145930 24 42 0.0 0.0 0.00 0.18 0.18 87 1010.3
20260903145730 24 44 0.0 0.0 0.00 0.18 0.18 87 1010.3
20260903145621 24 42 0.0 0.0 0.00 0.18 0.18 87 1010.3
20260903145532 24 41 0.0 0.0 0.00 0.18 0.18 87 1010.3
20260903145430 24 42 0.0 0.0 0.00 0.18 0.18 87 1010.2
20260903145131 24 41 0.0 0.0 0.00 0.18 0.18 87 1010.2
20260903145120 24 42 0.0 0.0 0.00 0.18 0.18 87 1010.2
20260903145029 24 42 0.0 0.0 0.00 0.18 0.18 87 1010.1
20260903144729 24 41 0.0 0.0 0.00 0.18 0.18 87 1010.1
20260903144621 24 38 0.0 0.0 0.00 0.18 0.18 87 1010.2
20260903144529 24 41 0.0 0.0 0.00 0.18 0.18 87 1010.2
20260903144326 24 38 0.0 0.0 0.00 0.18 0.18 86 1010.3
20260903144126 24 38 0.0 0.0 0.00 0.18 0.18 86 1010.3
20260903144118 24 37 0.0 0.0 0.00 0.18 0.18 86 1010.3
20260903144024 24 35 0.0 0.0 0.00 0.18 0.18 86 1010.2
20260903143721 24 38 0.0 0.0 0.00 0.18 0.18 86 1010.1
20260903143624 24 23 0.0 0.0 0.00 0.18 0.18 86 1010.0
20260903143617 24 37 0.0 0.0 0.00 0.18 0.18 86 1010.1
20260903143322 24 31 0.0 0.0 0.00 0.18 0.18 86 1010.1
20260903143119 24 27 0.0 0.0 0.00 0.18 0.18 86 1010.2
20260903142920 24 25 0.0 0.0 0.00 0.18 0.18 86 1010.2
20260903142719 24 25 0.0 0.0 0.00 0.18 0.18 86 1010.1
20260903142622 24 48 0.0 0.0 0.00 0.18 0.18 86 1010.0
20260903142617 24 27 0.0 0.0 0.00 0.18 0.18 86 1010.0
20260903142421 24 39 0.0 0.0 0.00 0.18 0.18 87 1009.9
20260903142120 24 32 0.0 0.0 0.00 0.18 0.18 87 1010.0
20260903142115 24 34 0.0 0.0 0.00 0.18 0.18 87 1010.0
20260903142013 24 32 0.0 0.0 0.00 0.18 0.18 87 1010.2
20260903141718 24 34 0.0 0.0 0.00 0.18 0.18 87 1010.0
20260903141615 24 62 0.0 0.0 0.00 0.18 0.18 87 1010.1
20260903141520 24 61 0.0 0.0 0.00 0.18 0.18 88 1010.1
20260903141416 24 31 0.0 0.0 0.00 0.18 0.18 88 1010.1
20260903141357 24 45 0.0 0.0 0.00 0.18 0.18 88 1010.1
20260903141105 24 31 0.0 0.0 0.00 0.18 0.18 88 1010.1
20260903141003 23 51 0.0 0.0 0.00 0.18 0.18 88 1010.1
20260903140705 23 49 0.0 0.0 0.00 0.18 0.18 87 1010.2
20260903140614 23 49 0.0 0.0 0.00 0.18 0.18 87 1010.2
20260903140607 23 51 0.0 0.0 0.00 0.18 0.18 87 1010.2
20260903140302 23 51 0.0 0.0 0.00 0.18 0.18 87 1010.3
20260903140121 23 48 0.0 0.0 0.00 0.18 0.18 87 1010.3
20260903140115 23 49 0.0 0.0 0.00 0.18 0.18 87 1010.3
20260903135902 23 49 0.0 0.0 0.00 0.18 0.18 87 1010.3
20260903135702 23 51 0.0 0.0 0.00 0.18 0.18 87 1010.4
20260903135612 23 49 0.0 0.0 0.00 0.18 0.18 87 1010.3
20260903135601 23 49 0.0 0.0 0.00 0.18 0.18 87 1010.3
20260903135306 24 49 0.0 0.0 0.00 0.18 0.18 88 1010.3
20260903135201 24 51 0.0 0.0 0.00 0.18 0.18 88 1010.1
20260903135112 24 51 0.0 0.0 0.00 0.18 0.18 88 1010.1
20260903134902 24 51 0.0 0.0 0.00 0.18 0.18 87 1010.2
20260903134704 24 48 0.0 0.0 0.00 0.18 0.18 87 1010.2
20260903134612 24 35 0.0 0.0 0.00 0.18 0.18 87 1010.1
20260903134505 24 34 0.0 0.0 0.00 0.18 0.18 87 1010.2
20260903134305 24 31 0.0 0.0 0.00 0.18 0.18 88 1010.1
20260903134113 24 39 0.0 0.0 0.00 0.18 0.18 88 1010.2
20260903134108 24 41 0.0 0.0 0.00 0.18 0.18 88 1010.2
20260903134006 24 58 0.0 0.0 0.00 0.18 0.18 88 1010.2
20260903133705 23 52 0.0 0.0 0.00 0.18 0.18 89 1010.2
20260903133610 23 54 0.0 0.0 0.00 0.18 0.18 89 1010.3
20260903133605 23 54 0.0 0.0 0.00 0.18 0.18 89 1010.3
20260903133304 23 109 0.0 0.0 0.00 0.18 0.18 89 1010.2
20260903133104 23 244 0.0 0.0 0.00 0.18 0.18 89 1010.2
20260903132903 23 247 0.0 0.0 0.00 0.18 0.18 90 1010.2
20260903132656 23 245 0.0 0.0 0.00 0.18 0.18 90 1010.2
20260903132611 23 245 0.0 0.0 0.00 0.18 0.18 90 1010.2
20260903132557 23 245 0.0 0.0 0.00 0.18 0.18 90 1010.2
20260903132411 23 245 0.0 0.0 0.00 0.18 0.18 90 1010.2
20260903132407 23 244 0.0 0.0 0.00 0.18 0.18 90 1010.2
20260903132349 23 244 0.0 0.0 0.00 0.18 0.18 90 1010.1
20260903131852 22 245 0.0 0.0 0.00 0.18 0.18 90 1010.2
20260903131651 22 245 0.0 0.0 0.00 0.18 0.18 90 1010.2
20260903131603 22 245 0.0 0.0 0.00 0.18 0.18 90 1010.2
20260903131451 22 245 0.0 0.0 0.00 0.18 0.18 90 1010.2
20260903131408 22 312 0.0 0.0 0.00 0.18 0.18 90 1010.2
20260903131404 22 314 0.0 0.0 0.00 0.18 0.18 90 1010.1
20260903131344 22 245 0.0 0.0 0.00 0.18 0.18 90 1010.2
20260903130850 22 162 0.0 0.0 0.00 0.18 0.18 90 1010.1
20260903130746 22 176 0.0 0.0 0.00 0.18 0.18 90 1010.1
20260903130604 22 178 0.0 0.0 0.00 0.18 0.18 90 1010.1
20260903130450 22 179 0.0 0.0 0.00 0.18 0.18 90 1010.2
20260903130426 22 183 0.0 0.0 0.00 0.18 0.18 90 1010.0
20260903130403 22 179 0.0 0.0 0.00 0.18 0.18 90 1010.1
20260903130047 22 180 0.0 0.0 0.00 0.18 0.18 90 1010.0
20260903125941 22 168 0.0 0.0 0.00 0.18 0.18 90 1009.9
20260903125644 22 154 0.0 0.0 0.00 0.18 0.18 91 1009.9
20260903125607 22 164 0.0 0.0 0.00 0.18 0.18 91 1009.9
20260903125541 22 171 0.0 0.0 0.00 0.18 0.18 91 1010.0
20260903125244 22 172 0.0 0.0 0.00 0.18 0.18 91 1010.0
20260903125103 22 175 0.0 0.0 0.00 0.18 0.18 91 1009.9
20260903125047 22 175 0.0 0.0 0.00 0.18 0.18 91 1010.0
20260903124839 22 219 0.0 0.0 0.00 0.18 0.18 91 1009.9
20260903124635 22 113 0.0 0.0 0.00 0.18 0.18 91 1010.0
20260903124607 22 161 0.0 0.0 0.00 0.18 0.18 91 1010.0
20260903124533 22 164 0.0 0.0 0.00 0.18 0.18 91 1010.0
20260903124407 22 145 0.0 0.0 0.00 0.18 0.18 92 1009.9
20260903124403 22 145 0.0 0.0 0.00 0.18 0.18 92 1009.9
20260903124339 22 148 0.0 0.0 0.00 0.18 0.18 92 1010.0
20260903123831 22 151 0.0 0.0 0.00 0.18 0.18 92 1010.0
20260903123603 22 152 0.0 0.0 0.00 0.18 0.18 92 1010.0
20260903123424 22 144 0.0 0.0 0.00 0.18 0.18 92 1010.1
20260903123410 22 190 0.0 0.0 0.00 0.18 0.18 92 1009.9
20260903123405 22 195 0.0 0.0 0.00 0.18 0.18 92 1009.9
20260903123343 22 141 0.0 0.0 0.00 0.18 0.18 92 1009.9
20260903122823 22 155 0.0 0.0 0.00 0.18 0.18 92 1009.9
20260903122722 22 188 0.0 0.0 0.03 0.18 0.18 93 1009.6
20260903122603 22 188 0.0 0.0 0.03 0.18 0.18 93 1009.6
20260903122422 22 200 0.0 0.0 0.08 0.18 0.18 93 1009.3
20260903122405 22 233 0.0 0.0 0.18 0.18 0.18 93 1009.2
20260903122339 22 231 0.0 0.0 0.18 0.18 0.18 93 1009.2
20260903122022 22 230 0.0 0.0 0.18 0.18 0.18 93 1009.2
20260903121822 22 347 0.0 0.0 0.18 0.18 0.18 93 1009.1
20260903121621 22 141 0.0 0.0 0.18 0.18 0.18 92 1009.2
20260903121601 22 158 0.0 0.0 0.18 0.18 0.18 92 1009.2
20260903121521 22 32 0.0 0.0 0.18 0.18 0.18 92 1009.3
20260903121223 22 168 0.0 0.0 0.18 0.18 0.18 92 1009.4
20260903121103 22 168 0.0 0.0 0.18 0.18 0.18 92 1009.4
20260903121004 22 168 0.0 0.0 0.18 0.18 0.18 92 1009.5
20260903120902 22 164 0.0 0.0 0.18 0.18 0.18 92 1009.7
20260903120601 22 44 0.0 0.0 0.18 0.18 0.18 92 1009.7
20260903120437 23 158 0.0 0.0 0.18 0.18 0.18 92 1009.6
20260903120431 23 164 0.0 0.0 0.18 0.00 0.18 92 1009.6
20260903120425 22 32 0.0 0.0 0.18 0.18 0.18 92 1009.5
20260903120352 23 158 0.0 0.0 0.18 0.18 0.18 92 1009.5
20260903115802 23 124 0.0 0.0 0.18 0.00 0.18 92 1009.7
20260903115610 23 155 0.0 0.0 0.00 0.00 0.18 92 1009.8
20260903115606 23 154 0.0 0.0 0.00 0.00 0.18 92 1009.8
20260903115508 23 155 0.0 0.0 0.00 0.00 0.18 92 1009.7
20260903115409 23 173 0.0 0.0 0.00 0.00 0.18 92 1009.7
20260903115337 23 173 0.0 0.0 0.00 0.00 0.18 92 1009.7
20260903115004 23 179 0.0 0.0 0.00 0.00 0.18 93 1009.7
20260903114804 23 180 0.0 0.0 0.00 0.00 0.18 93 1009.8
20260903114708 23 183 0.0 0.0 0.00 0.00 0.18 93 1010.0
20260903114606 23 185 0.0 0.0 0.00 0.00 0.18 93 1010.0
20260903114411 23 168 0.0 0.0 0.00 0.00 0.18 92 1010.0
20260903114405 23 180 0.0 0.0 0.00 0.00 0.18 92 1010.1
20260903114339 23 196 0.0 0.0 0.00 0.00 0.18 92 1010.0
20260903114005 23 168 0.0 0.0 0.00 0.00 0.18 92 1010.1
20260903113807 23 103 0.0 0.0 0.00 0.00 0.18 92 1010.1
20260903113615 23 171 0.0 0.0 0.00 0.00 0.18 92 1010.6
20260903113610 23 159 0.0 0.0 0.00 0.00 0.18 92 1010.4
20260903113604 23 159 0.0 0.0 0.00 0.00 0.18 92 1010.4
20260903113205 23 203 0.0 0.0 0.00 0.00 0.18 92 1010.4
20260903113103 23 227 0.0 0.0 0.00 0.00 0.18 92 1010.5
20260903113007 23 224 0.0 0.0 0.00 0.00 0.18 92 1010.5
20260903112803 23 186 0.0 0.0 0.00 0.00 0.15 92 1010.5
20260903112609 23 189 0.0 0.0 0.00 0.00 0.13 92 1010.7
20260903112604 23 189 0.0 0.0 0.00 0.00 0.13 92 1010.7
20260903112404 23 196 0.0 0.0 0.00 0.00 0.00 92 1010.7
20260903112209 23 197 0.0 4.8 0.00 0.00 0.00 93 1010.7
20260903112205 23 209 0.0 0.0 0.00 0.00 0.00 93 1010.7
20260903112105 23 209 0.0 0.0 0.00 0.00 0.00 93 1010.7
20260903111804 23 168 0.0 8.0 0.00 0.00 0.00 93 1010.6
20260903111605 23 207 0.0 8.0 0.00 0.00 0.00 94 1010.7
20260903111407 23 188 0.0 8.0 0.00 0.00 0.00 94 1010.6
20260903111205 23 169 0.0 8.0 0.00 0.00 0.00 94 1010.6
20260903111103 23 192 0.0 8.0 0.00 0.00 0.00 94 1010.6
20260903111003 23 192 0.0 8.0 0.00 0.00 0.00 94 1010.6
20260903110811 23 193 0.0 8.0 0.00 0.00 0.00 94 1010.3
20260903110805 23 193 0.0 8.0 0.00 0.00 0.00 94 1010.5
20260903110607 23 193 0.0 8.0 0.00 0.00 0.00 94 1010.3
20260903110403 23 207 0.0 8.0 0.00 0.00 0.00 94 1010.4
20260903110238 23 175 0.0 4.8 0.00 0.00 0.00 94 1010.3
20260903110203 23 220 0.0 4.8 0.00 0.00 0.00 94 1010.4
20260903110116 23 175 0.0 4.8 0.00 0.00 0.00 94 1010.3
20260903105803 23 173 0.0 3.2 0.00 0.00 0.00 94 1010.3
20260903105619 -17 0.0 0.0 0.00 0.00 0.00 1010.3
20260903105334 -17 0.0 0.0 0.00 0.00 0.00
20260903105114 -17 0.0 0.0 0.00 0.00 0.00
20260903104907 -17 0.0 0.0 0.00 0.00 0.00
20260903104707 -17 0.0 0.0 0.00 0.00 0.00
20260903104639 -17 0.0 0.0 0.00 0.00 0.00
20260903104439 -17 0.0 0.0 0.00 0.00 0.00
20260903104236 -17 0.0 0.0 0.00 0.00 0.00 1010.3
20260903104223 -17 0.0 0.0 0.00 0.03 0.00 1010.3
20260903104159 -17 0.0 0.0 0.00 0.00 0.00 1010.3
20260903103835 -17 0.0 0.0 0.00 0.03 0.00 1010.3
20260903103608 23 165 0.0 3.2 0.00 0.05 0.00 95 1010.3
20260903103411 23 165 0.0 6.4 0.00 0.13 0.00 95 1010.3
20260903103246 23 165 0.0 9.7 0.00 0.36 0.00 95 1010.4
20260903103212 23 165 0.0 9.7 0.00 0.36 0.00 95 1010.5
20260903103124 23 165 0.0 9.7 0.00 0.36 0.00 95 1010.5
20260903102745 23 165 0.0 9.7 0.00 0.36 0.00 95 1010.4
20260903102543 23 169 0.0 9.7 0.00 0.36 0.00 95 1010.5
20260903102344 22 193 0.0 9.7 0.00 0.36 0.00 95 1010.5
20260903102204 22 171 0.0 8.0 0.00 0.36 0.00 95 1010.6
20260903102156 22 161 0.0 9.7 0.00 0.36 0.00 95 1010.5
20260903102113 22 176 0.0 8.0 0.00 0.36 0.00 95 1010.6
20260903101741 22 182 0.0 8.0 0.00 0.36 0.00 95 1010.4
20260903101539 22 175 0.0 6.4 0.00 0.36 0.00 95 1010.2
20260903101349 22 145 0.0 4.8 0.00 0.36 0.00 96 1010.2
20260903101340 22 141 0.0 4.8 0.00 0.36 0.00 96 1010.2
20260903101251 22 175 0.0 4.8 0.00 0.36 0.00 96 1010.0
20260903101201 22 195 0.0 4.8 0.00 0.36 0.00 96 1010.0
20260903101116 22 192 0.0 4.8 0.00 0.36 0.00 96 1010.0
20260903100837 22 197 0.0 4.8 0.00 0.36 0.00 96 1010.1
20260903100536 22 147 0.0 3.2 0.00 0.36 0.00 96 1010.2
20260903100347 22 149 0.0 3.2 0.00 0.36 0.00 96 1010.2
20260903100337 22 144 0.0 3.2 0.00 0.36 0.00 96 1010.1
20260903100139 22 142 0.0 1.6 0.00 0.36 0.00 96 1010.0
20260903095937 22 145 0.0 1.6 0.00 0.36 0.00 96 1010.2
20260903095909 22 144 0.0 3.2 0.00 0.36 0.00 96 1010.3
20260903095854 22 144 0.0 1.6 0.00 0.36 0.00 96 1010.2
20260903095711 22 183 0.0 4.8 0.00 0.36 0.00 96 1010.3
20260903095617 22 183 0.0 3.2 0.00 0.36 0.00 96 1010.2
20260903095122 22 182 0.0 4.8 0.00 0.36 0.00 96 1010.5
20260903094907 22 183 0.0 6.4 0.00 0.36 0.00 96 1010.4
20260903094838 22 185 0.0 6.4 0.00 0.36 0.00 96 1010.4
20260903094707 22 183 0.0 6.4 0.00 0.36 0.00 96 1010.4
20260903094651 22 183 0.0 6.4 0.00 0.36 0.00 96 1010.6
20260903094646 22 185 0.0 6.4 0.00 0.36 0.00 96 1010.6
20260903094618 22 185 0.0 6.4 0.00 0.36 0.00 96 1010.5
20260903094231 22 185 0.0 6.4 0.00 0.36 0.00 96 1010.5
20260903094139 22 193 0.0 4.8 0.00 0.36 0.00 96 1010.6
20260903093839 22 190 0.0 4.8 0.00 0.36 0.00 96 1010.6
20260903093707 22 171 0.0 4.8 0.00 0.36 0.00 96 1010.6
20260903093646 22 147 0.0 3.2 0.00 0.36 0.00 96 1010.4
20260903093611 22 147 0.0 3.2 0.00 0.36 0.00 96 1010.5
20260903093258 22 148 0.0 3.2 0.00 0.36 0.00 96 1010.4
20260903093101 22 123 0.0 3.2 0.00 0.36 0.00 96 1010.4
20260903092855 22 68 0.0 3.2 0.00 0.36 0.00 96 1010.3
20260903092842 22 66 0.0 3.2 0.00 0.36 0.00 96 1010.3
20260903092658 22 68 0.0 3.2 0.00 0.36 0.00 96 1010.3
20260903092652 22 68 0.0 3.2 0.00 0.36 0.00 96 1010.2
20260903092341 22 69 0.0 3.2 0.00 0.36 0.00 96 1010.2
20260903092249 22 68 0.0 3.2 0.00 0.36 0.00 97 1010.2
20260903092052 22 68 0.0 1.6 0.00 0.36 0.00 97 1010.3
20260903091850 22 68 0.0 1.6 0.00 0.36 0.00 97 1010.2
20260903091838 22 69 0.0 1.6 0.00 0.36 0.00 97 1010.2
20260903091650 22 69 0.0 1.6 0.00 0.36 0.00 97 1010.3
20260903091448 22 68 0.0 1.6 0.00 0.36 0.00 97 1010.2
20260903091348 22 69 0.0 1.6 0.00 0.36 0.00 97 1010.2
20260903091252 22 66 0.0 1.6 0.00 0.36 0.00 96 1010.2
20260903091246 22 68 0.0 1.6 0.00 0.36 0.00 96 1010.2
20260903090848 22 66 0.0 1.6 0.00 0.36 0.00 96 1010.0
20260903090834 22 68 0.0 1.6 0.00 0.36 0.00 96 1010.0
20260903090644 22 66 0.0 1.6 0.00 0.36 0.00 96 1010.0
20260903090443 22 65 0.0 1.6 0.00 0.36 0.00 96 1010.0
20260903090334 22 63 0.0 3.2 0.00 0.36 0.00 96 1009.9
20260903090242 22 63 0.0 3.2 0.00 0.36 0.00 96 1009.9
20260903090046 22 63 0.0 3.2 0.00 0.36 0.00 96 1009.9
20260903085834 22 63 0.0 3.2 0.00 0.36 0.00 96 1009.9
20260903085746 22 62 0.0 3.2 0.00 0.36 0.00 96 1009.9
20260903085440 22 63 0.0 3.2 0.00 0.36 0.00 96 1010.0
20260903085334 22 152 0.0 0.0 0.00 0.36 0.00 96 1010.1
20260903085240 22 154 0.0 0.0 0.00 0.36 0.00 97 1010.1
20260903085042 22 152 0.0 0.0 0.00 0.36 0.00 97 1010.0
20260903084833 22 152 0.0 0.0 0.00 0.36 0.00 96 1010.1
20260903084743 22 151 0.0 0.0 0.00 0.36 0.00 96 1010.0
20260903084438 22 152 0.0 0.0 0.00 0.36 0.00 96 1009.9
20260903084344 22 152 0.0 0.0 0.00 0.36 0.00 96 1009.9
20260903084332 22 152 0.0 0.0 0.00 0.36 0.00 96 1009.9
20260903084213 22 152 0.0 0.0 0.00 0.36 0.00 96 1010.0
20260903084148 22 152 0.0 0.0 0.00 0.36 0.00 96 1009.9
20260903084102 22 154 0.0 0.0 0.00 0.36 0.00 96 1010.0
20260903083637 22 152 0.0 0.0 0.00 0.36 0.00 96 1010.0
20260903083440 22 151 0.0 0.0 0.00 0.36 0.00 96 1010.0
20260903083345 22 152 0.0 0.0 0.00 0.36 0.00 96 1010.1
20260903083330 22 152 0.0 0.0 0.00 0.36 0.00 96 1010.1
20260903083210 22 154 0.0 3.2 0.00 0.36 0.00 96 1010.0
20260903083206 22 152 0.0 3.2 0.00 0.36 0.00 96 1010.0
20260903083146 22 152 0.0 3.2 0.00 0.36 0.00 96 1010.0
20260903082632 22 154 0.0 3.2 0.00 0.36 0.00 96 1010.0
20260903082432 22 154 0.0 3.2 0.00 0.36 0.00 96 1009.9
20260903082320 22 152 0.0 3.2 0.00 0.36 0.00 96 1010.0
20260903082230 22 152 0.0 3.2 0.00 0.36 0.00 96 1010.0
20260903082141 22 152 0.0 3.2 0.00 0.36 0.00 96 1010.0
20260903082121 22 152 0.0 3.2 0.00 0.36 0.00 96 1010.0
20260903082042 22 154 0.0 3.2 0.00 0.36 0.00 96 1010.0